GEFSGL_con_maxscp_276.txt.gz
SCP
9 8 6 5 5 4 3 3 3 3 4 4 4 4 4 3 3 3 2 2 2 2 2 2 2 2 2 1 1 1 2 2 2 2 2 2 2 2 3 3 4 3 3
8 8 7 7 7 6 5 4 4 5 5 5 5 4 4 4 3 3 2 2 2 2 2 2 2 2 2 2 1 1 1 2 2 2 2 3 3 3 3 3 3 3 4
7 7 7 7 8 7 7 6 6 6 5 5 5 5 5 5 5 4 3 2 2 2 2 2 2 2 2 2 2 2 2 2 2 2 3 4 4 4 4 4 3 4 4
7 7 6 7 7 7 7 7 6 6 6 5 6 7 7 6 6 4 3 2 2 2 2 2 2 2 2 2 2 3 3 2 2 3 3 4 5 5 4 4 3 3 3
9 7 6 7 7 7 7 6 6 6 6 6 7 8 8 7 6 5 3 3 3 2 2 2 2 2 2 2 2 3 3 3 3 3 3 4 5 5 4 4 3 3 3
10 9 8 9 9 9 8 7 7 7 7 8 8 9 8 7 5 4 3 3 3 3 3 3 3 3 2 2 2 2 2 3 3 3 3 4 5 5 4 4 3 3 2
11 10 10 11 12 11 10 10 10 10 10 11 10 10 9 7 5 3 2 3 4 4 4 4 4 3 3 3 3 2 2 2 2 2 3 4 5 4 4 3 3 2 2
10 9 9 11 12 12 11 11 12 12 13 13 12 11 10 7 4 2 1 2 4 5 5 5 5 4 4 4 4 3 3 3 2 2 3 3 3 3 3 3 3 2 2
8 8 9 9 9 9 9 10 11 12 13 12 12 11 10 7 4 2 1 3 4 5 6 6 6 5 4 4 4 4 4 4 3 3 2 2 1 2 2 3 3 3 2
8 8 9 8 8 7 7 8 10 11 11 10 10 10 10 7 4 2 2 4 6 6 6 7 7 5 4 3 4 5 5 5 4 4 2 1 1 1 2 3 4 3 3
9 10 10 9 7 7 8 9 10 10 10 9 9 10 9 7 4 2 2 4 7 8 6 6 7 5 3 2 3 4 5 4 5 4 3 2 2 2 3 3 4 3 3
12 13 12 11 10 10 12 13 12 11 10 9 9 9 8 7 5 3 2 2 5 6 5 5 5 4 2 1 2 2 3 3 4 4 3 3 3 4 4 4 4 4 3
17 17 16 16 17 17 17 16 13 10 8 7 7 8 7 6 6 4 2 1 2 3 4 4 3 2 1 1 1 1 2 2 3 3 3 3 3 4 5 5 5 4 4
19 19 19 20 21 20 18 15 11 8 7 6 6 6 6 5 5 4 3 2 2 3 3 3 3 2 2 2 2 1 2 3 3 3 3 3 3 4 5 6 5 4 4
16 17 18 19 19 16 14 11 8 7 6 6 5 5 4 4 4 4 4 4 4 3 4 4 4 4 3 4 4 3 3 3 4 4 4 4 3 4 5 6 5 4 4
13 14 14 13 13 11 9 7 6 5 4 3 3 3 3 2 2 2 3 3 3 4 5 6 7 7 6 6 6 4 3 4 4 4 4 4 4 4 4 4 4 4 3
12 11 9 9 9 8 7 6 5 4 3 2 2 2 1 1 1 1 1 1 2 3 5 8 10 10 9 8 7 6 5 4 4 4 4 5 5 4 4 3 3 3 3
11 9 8 8 8 7 6 6 5 4 4 3 2 1 1 1 1 0 1 2 3 4 6 9 11 11 10 9 8 7 6 5 4 5 4 4 4 4 3 3 2 2 2
9 9 8 8 8 7 6 5 4 5 5 5 4 2 1 1 1 1 2 3 5 5 6 8 9 9 9 9 9 8 6 5 4 4 4 4 3 3 3 3 2 2 2
7 8 8 9 9 8 6 4 4 5 6 7 6 4 3 2 2 2 3 5 6 7 7 8 8 9 8 8 9 9 6 4 4 3 3 3 3 3 3 3 3 2 2
7 8 9 10 11 9 6 4 4 5 6 8 8 6 3 3 3 4 5 5 6 7 7 8 8 8 7 7 8 8 6 4 3 3 3 3 3 3 3 3 3 2 2
8 9 10 10 10 9 6 4 4 4 6 8 9 6 4 5 6 7 6 6 6 6 6 7 8 7 5 5 7 7 5 4 4 3 3 3 3 3 3 3 3 2 2
8 9 10 10 8 6 5 4 3 4 6 8 8 7 6 8 8 8 6 5 5 4 4 6 8 6 4 5 6 6 5 3 3 3 3 3 3 2 2 2 2 2 2
7 8 8 7 5 4 4 4 4 5 6 7 7 6 6 6 6 5 4 3 3 2 3 5 6 5 4 4 6 7 5 2 2 2 3 3 2 2 2 2 2 2 2
5 5 5 4 3 4 4 5 5 5 6 5 4 4 4 3 2 2 2 2 1 1 3 4 6 5 4 5 6 6 4 2 1 1 2 2 2 2 2 2 2 1 1
4 4 3 3 3 4 5 5 6 6 5 4 3 3 2 2 2 2 2 2 1 1 2 4 6 5 5 5 7 6 3 1 0 1 1 1 1 2 2 2 2 1 1

GEFSGL_con_maxscp_282.txt.gz
SCP
7 5 4 4 4 4 3 3 2 2 1 1 1 1 2 2 2 2 2 2 1 1 1 1 1 1 1 1 1 1 1 1 1 1 0 0 1 1 0 0 1 1 1
6 5 5 5 5 5 4 3 3 2 2 2 2 2 2 2 3 3 2 2 1 1 1 1 1 1 1 1 1 1 1 1 1 1 1 1 1 1 1 0 1 1 1
5 5 5 5 5 5 5 4 4 3 3 2 3 3 3 3 3 2 2 2 1 1 1 1 1 1 1 1 0 1 1 1 1 1 1 1 1 1 1 1 1 1 1
5 5 5 5 5 5 5 5 4 4 4 4 4 4 4 4 4 3 2 1 1 1 1 1 1 1 1 1 0 1 1 1 1 1 1 1 1 1 1 1 1 1 1
5 5 5 4 4 4 4 5 5 6 6 6 6 5 5 5 4 3 2 1 1 1 1 1 1 1 1 1 1 1 1 1 1 1 1 1 1 1 1 1 1 1 1
6 6 6 5 4 4 4 5 5 6 7 8 7 7 6 5 5 4 3 2 1 1 1 1 1 1 1 1 1 1 1 1 1 1 1 1 1 1 1 1 1 1 1
5 6 6 6 5 5 5 5 6 7 8 9 9 8 7 6 5 4 3 2 1 1 1 1 1 1 1 1 2 1 1 1 1 1 1 1 1 1 1 1 1 1 1
4 5 7 7 7 6 6 6 6 8 9 10 10 9 8 6 6 5 4 3 2 2 2 1 1 1 2 2 2 2 2 2 1 1 1 1 1 1 1 1 1 1 1
5 6 7 7 7 7 6 6 7 8 10 11 10 9 8 7 7 6 4 3 3 2 2 2 2 2 1 2 2 2 2 2 1 1 1 1 1 1 0 0 0 1 1
5 5 6 6 6 6 7 6 6 8 9 10 10 9 8 8 7 6 5 4 3 2 2 2 2 2 1 1 2 2 2 2 2 1 1 1 1 0 0 0 0 1 1
5 5 5 4 4 5 7 7 6 7 8 9 8 7 7 7 6 5 4 4 4 2 2 3 3 2 1 1 1 2 2 2 2 2 2 1 1 1 1 1 1 1 1
5 5 5 4 3 4 5 6 6 6 7 8 6 5 5 6 6 4 3 3 3 2 2 2 2 2 1 1 1 1 1 2 2 2 2 2 2 1 1 1 1 1 1
6 6 6 5 4 4 4 5 6 6 6 6 5 4 4 5 5 4 2 1 1 1 1 2 1 1 1 1 1 1 1 1 2 2 2 2 2 1 1 1 1 1 1
6 6 7 6 5 4 4 5 6 6 6 6 5 4 4 4 4 3 2 1 0 1 1 1 1 1 1 1 1 1 1 1 2 2 2 1 1 1 1 1 1 1 1
5 5 6 6 6 4 4 4 4 5 6 6 5 5 5 4 3 3 2 1 1 0 0 1 1 1 1 1 1 1 1 1 2 2 2 1 1 1 1 1 1 1 1
4 5 5 5 5 4 3 3 3 3 4 4 4 3 3 3 3 2 1 1 0 0 1 1 1 1 1 1 2 2 2 2 2 2 2 2 1 1 1 1 1 1 1
6 6 6 5 4 4 4 4 4 3 2 2 1 1 2 2 1 1 0 0 0 0 1 1 2 1 1 2 2 2 2 2 2 3 3 2 2 2 1 1 1 1 1
7 8 8 7 5 5 5 5 5 5 4 2 1 0 1 1 1 0 0 0 0 0 1 1 2 2 2 2 3 3 3 2 3 3 3 3 3 3 3 2 2 1 1
7 8 9 8 7 7 6 6 7 7 6 4 2 1 0 0 0 0 0 0 1 1 1 1 2 2 2 3 3 3 2 2 3 3 4 4 4 5 5 4 4 2 1
6 7 8 8 9 9 8 7 8 9 9 7 4 2 1 0 0 0 0 1 1 1 1 2 2 2 2 3 2 2 1 2 2 3 3 4 5 5 6 6 5 2 1
4 5 7 8 9 10 9 8 8 9 10 8 6 2 1 1 1 1 1 1 2 2 2 2 2 2 2 1 1 1 1 1 2 3 3 2 4 4 5 4 4 2 1
4 4 5 7 9 10 9 7 6 7 8 7 5 2 1 1 2 1 1 1 1 2 2 1 1 1 1 1 0 0 1 1 1 2 2 1 2 2 3 3 2 1 0
4 4 5 6 8 9 8 5 4 4 5 5 3 2 1 1 2 1 1 1 1 1 1 1 1 1 1 0 0 0 1 1 1 1 1 1 1 1 1 1 1 1 0
4 4 4 5 7 8 6 4 2 3 3 3 2 2 1 1 1 1 1 1 1 1 2 2 1 1 1 1 1 1 0 1 1 1 1 0 0 1 0 0 0 0 0
3 3 3 5 6 7 5 3 2 2 2 2 1 1 1 1 1 1 1 1 1 1 1 1 1 1 1 1 1 1 0 0 1 1 1 0 0 0 0 0 0 0 0
2 3 3 4 6 7 5 3 2 2 2 1 1 1 1 1 1 1 1 1 1 1 1 1 0 0 0 0 1 1 0 0 0 1 1 0 0 0 0 0 0 0 0

GEFSGL_con_maxscp_288.txt.gz
SCP
2 2 3 3 2 2 2 2 2 3 3 3 2 2 2 2 1 1 1 1 1 1 2 2 1 1 1 1 1 1 1 1 1 1 1 1 1 1 1 1 1 1 1
2 2 2 2 2 2 3 3 3 3 3 3 3 3 3 2 2 2 2 2 2 2 2 1 1 1 1 1 1 1 1 1 1 1 1 1 1 1 1 1 1 1 1
2 2 2 2 2 3 3 3 3 3 3 3 3 4 4 3 3 2 2 2 2 2 1 1 1 1 1 1 1 1 1 1 1 1 1 1 1 1 1 1 1 1 1
2 2 2 2 2 3 3 3 2 2 3 3 3 4 4 4 4 3 3 2 2 1 1 1 1 1 1 1 0 1 1 1 1 1 1 1 1 1 1 1 1 1 1
3 3 2 2 2 3 3 2 2 2 2 2 3 4 4 5 5 5 4 3 2 1 1 1 0 0 0 0 0 0 1 1 1 1 2 1 1 1 1 1 1 1 1
3 3 3 2 2 2 2 2 2 2 2 2 3 3 4 4 5 5 5 4 3 2 1 1 1 0 0 0 0 0 1 1 1 2 2 2 2 1 2 2 2 2 2
3 3 3 3 3 3 2 3 3 3 2 2 3 3 4 4 4 4 5 5 5 3 2 1 1 1 1 1 1 1 1 1 1 1 2 2 2 2 2 2 2 2 2
3 3 3 3 3 3 3 3 4 3 3 2 3 3 4 4 4 3 4 5 6 5 3 1 1 1 1 1 1 1 1 1 1 1 1 1 1 2 2 2 3 2 2
3 4 4 3 3 3 3 3 4 4 3 3 3 3 3 3 3 2 3 6 7 6 4 2 1 1 1 1 1 2 2 1 1 1 1 1 1 1 2 2 3 3 2
4 4 5 5 4 3 2 3 4 4 3 3 4 4 3 3 2 2 3 7 9 9 6 3 2 1 1 1 1 1 1 1 1 1 1 1 1 1 1 2 3 2 2
4 5 6 6 5 4 3 3 3 3 3 4 4 5 4 3 3 2 3 7 10 11 9 6 3 1 0 0 1 1 1 1 1 1 1 1 1 2 2 2 2 2 1
6 6 7 6 5 4 3 3 4 4 4 4 5 5 6 5 3 2 2 4 8 11 11 8 4 1 0 0 0 0 0 1 1 2 2 2 2 2 2 2 1 1 1
7 8 8 7 6 5 4 4 4 4 4 4 5 6 6 6 4 3 2 2 4 7 9 8 4 1 0 0 0 0 0 1 2 2 3 3 2 2 2 2 1 1 1
8 8 8 7 6 4 3 3 3 3 3 3 4 5 6 6 5 4 4 2 2 4 6 5 2 1 1 0 1 1 1 1 2 3 3 3 3 2 1 2 2 2 2
7 7 7 6 5 3 3 3 3 2 2 2 3 3 4 4 4 4 4 3 3 3 3 3 2 2 1 1 1 1 1 1 2 3 3 3 3 2 1 2 2 2 2
5 5 5 5 4 3 3 3 2 2 1 1 1 2 2 2 2 2 2 2 2 2 3 4 4 3 3 3 2 2 2 2 2 2 3 3 2 2 2 2 2 2 2
4 4 4 3 3 3 3 3 2 1 1 1 1 1 1 1 1 0 0 0 0 1 3 5 6 5 5 4 4 3 3 2 2 2 2 2 2 2 2 2 2 2 2
3 3 3 2 2 2 2 2 2 2 2 1 1 0 0 0 0 0 0 1 1 2 4 6 7 6 5 5 4 4 4 3 3 3 3 2 2 2 2 2 2 2 2
3 3 2 2 2 2 2 2 2 2 2 2 1 1 0 0 0 0 0 1 3 4 4 5 5 5 4 4 4 4 5 4 4 3 3 3 3 2 2 2 2 2 1
2 2 2 2 2 2 2 2 3 3 3 3 2 2 1 1 0 0 0 1 2 3 4 4 4 3 3 3 3 4 4 4 3 3 3 3 3 2 2 2 2 2 2
2 2 2 2 2 2 3 3 3 3 3 3 3 2 2 1 1 1 1 1 2 3 4 4 4 3 3 3 2 2 2 2 2 2 2 2 2 2 2 2 2 2 2
2 2 2 2 3 3 2 3 3 3 3 4 4 3 2 2 2 2 2 2 2 3 4 5 5 4 4 3 2 2 2 2 1 1 1 1 1 2 2 1 1 1 1
2 2 2 3 3 3 3 3 2 3 3 4 4 3 3 2 3 3 3 3 3 3 3 4 4 4 4 3 2 2 2 2 1 1 1 1 1 1 2 1 1 1 1
2 2 2 2 3 3 3 3 3 3 3 4 4 4 3 2 2 2 2 2 2 2 2 3 3 3 3 2 2 2 1 1 1 1 1 1 1 1 1 1 1 0 0
1 1 2 2 3 3 3 3 4 4 4 3 4 4 3 2 2 1 1 1 1 1 1 2 2 2 2 2 1 1 1 1 0 1 1 1 1 1 1 1 1 0 0
1 1 2 2 2 2 2 3 4 6 4 3 4 4 3 2 1 1 1 0 0 0 1 1 2 2 2 1 1 1 0 0 0 0 0 1 1 1 1 1 1 0 0

GEFSGL_con_maxscp_294.txt.gz
SCP
6 5 5 4 3 2 3 3 3 4 4 4 5 6 6 6 6 6 6 5 5 4 4 3 3 3 3 3 3 3 3 2 2 1 1 1 1 2 1 1 1 1 1
5 5 5 4 3 3 4 4 4 4 4 5 6 6 6 6 6 6 6 5 4 4 4 4 3 3 3 3 3 3 3 2 2 1 1 1 2 1 1 1 1 1 1
5 5 5 4 4 4 5 5 4 4 5 6 6 6 6 6 6 6 5 4 4 3 4 4 4 3 3 3 2 2 2 2 2 2 2 2 2 1 1 1 1 1 1
5 6 5 5 4 5 6 5 5 4 5 6 6 6 5 5 5 4 4 3 3 3 4 4 4 4 3 3 2 2 2 2 2 2 2 2 2 2 2 2 2 2 2
6 7 7 6 5 6 6 5 5 4 5 5 5 5 5 4 4 3 3 3 3 4 4 5 5 4 3 2 2 2 2 2 2 2 2 2 2 2 2 2 3 3 3
9 9 8 7 7 7 7 6 5 4 4 5 5 5 4 3 2 2 2 2 3 4 6 6 6 5 4 2 1 1 2 2 2 2 1 2 2 2 2 3 3 4 4
10 9 7 7 8 9 8 7 6 5 5 5 5 4 4 3 2 1 1 1 2 4 6 7 8 7 5 3 2 1 1 1 1 1 1 2 2 3 3 3 4 4 4
7 7 6 7 8 9 10 10 9 7 6 5 5 4 4 3 2 1 1 1 2 3 5 7 9 8 7 4 3 2 2 1 1 1 2 2 2 3 3 4 5 5 5
6 6 6 7 8 8 10 11 11 9 8 6 5 4 4 3 2 1 1 2 3 3 4 6 8 8 7 4 3 3 3 2 2 1 1 2 2 2 3 4 5 5 4
7 6 7 8 8 8 9 11 11 10 9 7 5 4 4 4 2 1 1 3 4 4 5 6 6 6 5 3 3 4 4 4 3 2 2 2 2 2 3 4 5 4 4
8 8 9 9 9 8 9 10 12 11 10 8 6 5 4 4 2 1 1 3 4 5 5 6 6 4 2 1 2 3 4 4 4 4 3 3 3 3 4 4 5 5 4
11 12 13 12 10 8 8 9 11 11 9 7 5 4 4 4 3 1 1 1 3 4 5 6 5 3 1 0 1 2 2 3 4 4 4 3 4 4 5 6 7 6 6
12 15 15 13 10 8 8 8 8 8 7 5 4 3 4 4 3 2 1 1 1 3 4 4 3 2 0 0 0 1 1 2 4 4 4 4 4 4 5 6 7 7 7
11 13 13 11 9 7 6 6 6 6 5 4 4 3 3 3 3 2 2 1 1 1 2 3 2 2 2 2 2 2 2 3 4 4 4 4 4 4 5 6 7 7 7
8 9 9 8 7 6 5 5 5 5 5 4 3 3 3 3 2 2 1 1 1 1 1 2 3 4 4 5 5 5 5 5 5 4 4 3 3 4 6 7 8 7 6
6 6 6 6 6 5 5 4 4 4 3 2 2 2 2 2 1 1 1 0 0 1 1 2 3 5 6 7 7 7 7 7 7 6 5 4 4 4 7 8 8 7 6
5 5 5 5 5 5 5 4 4 3 2 1 1 1 1 1 0 0 0 0 0 0 1 2 3 4 6 7 7 7 8 8 8 7 6 5 4 5 6 8 8 7 7
5 5 5 5 5 5 5 4 4 4 4 2 1 1 0 0 0 0 0 0 0 1 1 3 3 4 5 6 7 7 8 9 10 9 7 6 5 5 6 7 9 9 8
5 5 5 6 5 5 5 4 3 3 3 3 2 1 1 0 0 0 0 0 1 1 2 2 3 3 4 6 7 8 9 10 11 11 9 7 6 6 7 8 9 9 8
5 4 4 5 5 5 4 4 3 3 3 2 2 2 1 1 1 1 1 1 1 1 2 2 3 3 4 5 7 8 9 10 11 11 11 9 8 8 8 9 9 8 8
3 3 3 4 5 5 4 4 3 3 3 2 2 2 2 1 1 1 1 1 2 2 2 2 3 3 4 5 6 8 9 10 10 10 10 10 9 9 9 8 8 7 7
2 2 2 4 5 5 4 4 3 3 2 2 2 2 2 2 2 2 2 2 2 3 3 3 3 3 3 4 5 7 9 10 9 9 9 10 9 9 8 7 6 5 5
2 2 2 3 3 4 3 3 2 2 2 2 2 2 2 2 2 2 2 2 3 3 3 3 2 2 3 3 5 7 9 10 9 9 9 10 9 8 6 5 4 4 3
2 2 1 1 2 2 2 2 2 2 2 1 2 2 2 2 2 3 3 3 3 3 2 2 2 2 3 4 5 7 7 8 8 9 9 8 7 5 3 3 2 2 2
3 2 2 1 1 1 2 2 2 2 1 1 1 2 2 2 2 3 3 3 3 2 2 2 2 2 3 4 5 5 5 4 4 6 6 5 4 2 2 1 2 2 2
3 3 2 2 2 2 2 2 2 1 1 1 1 1 1 2 2 3 3 3 3 3 2 2 2 2 3 3 4 4 3 1 1 3 4 4 3 2 1 1 1 2 2